Weather past 2 weeks in Diego Garcia, British Indian Ocean Territory

Now
84 °F

Passing clouds.


Feels Like: 92 °F
Forecast: 80 / 84 °F
Wind: 7 mph from West

Location: Male Airport

Current Time: Aug 2, 2015 at 7:03:59 AM

Latest Report: Aug 2, 2015 at 6:00 AM


Visibility: N/A

Pressure: 29.89 "Hg

Humidity: 74%

Dew point: 75 °F

Location of Diego GarciaLocation

Historic Weather in Diego Garcia — Graph

°F

Diego Garcia temperature yesterday

Maximum temperature yesterday: 88 °F (at 11:00 AM)
Minimum temperature yesterday: 82 °F (at 2:00 AM)
Average temperature yesterday: 85 °F

Past Weeks' High & Low Weather Summary

 TemperatureHumidityPressure
High90 °F (Jul 30, 4:00 PM)100% (Jul 23, 3:00 AM)29.98 "Hg (Jul 23, 3:00 AM)
Low75 °F (Jul 23, 12:00 AM)63% (Jul 30, 4:00 PM)29.74 "Hg (Jul 20, 6:00 PM)
Average85 °F76%29.86 "Hg
* Reported Jul 18 6:00 AM — Aug 2 6:00 AM, Diego Garcia, Weather by CustomWeather, © 2015

Note: Actual official high and low records may vary slightly from our data, if they occured in-between our weather recording intervals... More about our weather records

Advertising

Diego Garcia weather history for previous 24 hours

 ConditionsComfort  
Time TempWeatherWind HumidityBarometerVisibility
6:00 AM
Sun, Aug 2
84 °FPassing clouds.7 mph74%29.89 "HgN/A
5:00 AM84 °FPassing clouds.5 mph74%29.89 "HgN/A
4:00 AM84 °FPassing clouds.1 mph74%29.92 "HgN/A
3:00 AM84 °FPassing clouds.2 mph74%29.92 "HgN/A
2:00 AM84 °FPassing clouds.2 mph74%29.95 "HgN/A
1:00 AM84 °FPassing clouds.3 mph74%29.95 "HgN/A
12:00 AM84 °FPassing clouds.3 mph74%29.98 "HgN/A
11:00 PM
Sat, Aug 1
84 °FPassing clouds.2 mph74%29.95 "HgN/A
10:00 PM84 °FPassing clouds.5 mph74%29.95 "HgN/A
9:00 PM84 °FPassing clouds.5 mph74%29.92 "HgN/A
8:00 PM84 °FPassing clouds.5 mph74%29.92 "HgN/A
7:00 PM84 °FBroken clouds.5 mph74%29.89 "HgN/A
6:00 PM86 °FScattered clouds.3 mph75%29.86 "HgN/A
5:00 PM88 °FScattered clouds.5 mph66%29.86 "HgN/A
4:00 PM88 °FScattered clouds.6 mph66%29.86 "HgN/A
3:00 PM88 °FScattered clouds.5 mph70%29.89 "HgN/A
2:00 PM88 °FScattered clouds.3 mph70%29.89 "HgN/A
1:00 PM88 °FScattered clouds.5 mph66%29.92 "HgN/A
12:00 PM88 °FPassing clouds.3 mph66%29.92 "HgN/A
11:00 AM88 °FPassing clouds.3 mph66%29.92 "HgN/A
10:00 AM86 °FPassing clouds.2 mph70%29.92 "HgN/A
9:00 AM86 °FPassing clouds.3 mph70%29.89 "HgN/A
8:00 AM82 °FScattered clouds.No wind79%29.86 "HgN/A
7:00 AM82 °FPassing clouds.No wind79%29.86 "HgN/A
Weather by CustomWeather, © 2015

See weather overviewHow to use our weather pages